STAR ONE D1 (41904 NORAD) Tracking and Keplerian Element Data

This shows tracking and keplerian element data for the satellite.

Feedback or suggestion? Click here.




ElementValue
Catalog41904
NameSTAR ONE D1
Epoch Orbit581
Epoch Day202.40246984
Epoch Year2018
RAAN89.8145
Inclination0.0338
Eccentricity0.0002459
Argument of Perigee43.0791
Mean Anonmoly227.1108
Mean Motion1.00271541
Decay Rate-2.25E-06
L11 41904U 16082B 18202.40246984 -.00000225 00000-0 00000-0 0 9995
L22 41904 0.0338 89.8145 0002459 43.0791 227.1108 1.00271541 5819

Live tracking and technical data element details for STAR ONE D1 (NORAD 41904). STAR ONE D1 can be tracked NOW for your location showing map with azimuth and elevation plus other details from your city location.

Track the satellite on the map from your city or location and see movement details for azimuth, elevation, latitude, longitude, range, height, and movement on the map or in text.







IsCatalogInMostPopularTable: catalog: 41904, numindb: 77
Update: records affected: 1



GetName: 41904 STAR ONE D1

Hit Count: updated at: Mon, 23 Jul 2018 07:38:16 GMT